CZ-4 DEB, 35327

Orbit data source: Space-Track

CZ-4 DEB, 35327 is space debris in SSO originally from a launch on Thu, 14 Oct 1999 UTC launched from the Taiyaun Space Center, China (TSC). Debris objects in space refer to the collection of defunct objects orbiting the Earth. Examples of debris include non-operational satellites, rocket bodies, and fragments generated from explosions, collisions, or faulty payload assembly.

Loading next visibility...
Identifier
35327, 1999-057SF
Orbit
SSO
Country
Flag of CNCN / PRC
Related business
Manufacturer
Unknown
Mission
Spacecraft
Bus & Motor
Unknown
Mass
Unknown
Launch date (UTC)
1999-10-14 (26 years ago)
Launch vehicle
Unknown
Launch site
Taiyaun Space Center, China (TSC)
Object type
Payload
Rocket body
Debris
Shape & HBR
Unknown shape, 0.1 m
Radar Cross Section
Small (<0.1 m²)

Expand to show TLE details & history
Last TLE update: 1 week ago

TLE from 1 week ago
0 CZ-4 DEB
1 35327U 99057SF  25344.49635024  .00005523  00000-0  10743-2 0  9993
2 35327  98.4733  65.0305 0073323 340.6732  19.1690 14.61813432685758
Epoch: 2025-12-10T11:54Z
TLE epoch observation values (Epoch: 2025-12-10T11:54:44.660Z)
Latitude
-0.00006°
Longitude
166.87858°
Altitude
641.401 km
Speed
7.563 km/s
True Right ascension
04h 20m 07s
True Declination
0° 00' 00"
Sunlit
Object was in full shadow at epoch
Visualization orbit readout
Latitude
Unknown
Longitude
Unknown
Altitude
Unknown
Speed
Unknown
Apparent Right ascension
Unknown
Apparent Declination
Unknown
Sunlit
N/A
Visualization observer readout
Local Sidereal Time
03:24:49
Azimuth
Unknown
Elevation
Unknown
Doppler factor
Unknown
Orbital elements
Apogee altitude
736.201 km
Perigee altitude
632.631 km
Semi-major axis
7,062.553 km
Eccentricity
0.00733
Inclination
98.4733°
RAAN
65.0305°
Arg. of periapsis
340.6732°
True anomaly
19.4473°
Mean anomaly
19.169°
Eccentric anomaly
19.30791°
Mean motion
3.65679 °/min
Orbital period
98.45 mins
BSTAR
0.0010743
Loading maneuver chart data...
Computing Atmospheric mass density...
Loading historical data...
Loading historical data...
Loading historical data...
Loading historical data...
Loading historical data...
Loading historical data...
Loading historical data...

Documentation

Showing up to 5 results
|